H1 CPF 2 NER 2021 6 23 9 174 01 glonass141 H2 1908801 9141 44850 2021 6 23 0 0 0 2021 6 26 23 45 0 900 1 1 0 0 0 1 H9 10 0 59388 0.00000 0 18881107.564 17114831.186 1100386.659 10 0 59388 900.00000 0 18937851.062 16949908.821 -2117875.837 10 0 59388 1800.00000 0 18669824.210 16541890.121 -5294967.692 10 0 59388 2700.00000 0 18052291.064 15941139.316 -8369088.687 10 0 59388 3600.00000 0 17072809.984 15203405.830 -11280394.242 10 0 59388 4500.00000 0 15731974.619 14387318.211 -13972169.355 10 0 59388 5400.00000 0 14043618.478 13551769.316 -16391943.775 10 0 59388 6300.00000 0 12034472.137 12753304.002 -18492525.625 10 0 59388 7200.00000 0 9743285.654 12043620.763 -20232932.250 10 0 59388 8100.00000 0 7219451.464 11467293.974 -21579199.288 10 0 59388 9000.00000 0 4521184.265 11059814.047 -22505051.444 10 0 59388 9900.00000 0 1713333.414 10846029.259 -22992421.288 10 0 59388 10800.00000 0 -1135081.174 10839055.777 -23031805.639 10 0 59388 11700.00000 0 -3953506.833 11039702.428 -22622452.362 10 0 59388 12600.00000 0 -6672559.458 11436434.673 -21772373.891 10 0 59388 13500.00000 0 -9226675.561 12005879.244 -20498187.348 10 0 59388 14400.00000 0 -11556604.431 12713847.738 -18824784.548 10 0 59388 15300.00000 0 -13611636.518 13516835.345 -16784838.729 10 0 59388 16200.00000 0 -15351475.507 14363930.578 -14418158.099 10 0 59388 17100.00000 0 -16747676.717 15199054.398 -11770899.362 10 0 59388 18000.00000 0 -17784592.837 15963433.110 -8894657.400 10 0 59388 18900.00000 0 -18459789.077 16598199.588 -5845449.633 10 0 59388 19800.00000 0 -18783912.320 17047012.041 -2682615.772 10 0 59388 20700.00000 0 -18780021.939 17258579.044 532344.612 10 0 59388 21600.00000 0 -18482412.761 17188983.792 3736973.263 10 0 59388 22500.00000 0 -17934981.891 16803709.368 6869069.102 10 0 59388 23400.00000 0 -17189210.141 16079279.778 9867894.652 10 0 59388 24300.00000 0 -16301844.605 15004447.995 12675349.505 10 0 59388 25200.00000 0 -15332381.009 13580881.516 15237088.363 10 0 59388 26100.00000 0 -14340452.232 11823317.121 17503562.583 10 0 59388 27000.00000 0 -13383232.712 9759178.673 19430966.096 10 0 59388 27900.00000 0 -12512967.141 7427673.922 20982068.728 10 0 59388 28800.00000 0 -11774726.151 4878407.732 22126922.197 10 0 59388 29700.00000 0 -11204481.829 2169568.693 22843426.664 10 0 59388 30600.00000 0 -10827582.369 -634236.754 23117748.248 10 0 59388 31500.00000 0 -10657688.557 -3464414.238 22944580.468 10 0 59388 32400.00000 0 -10696215.725 -6250976.635 22327245.283 10 0 59388 33300.00000 0 -10932304.052 -8925198.950 21277631.957 10 0 59388 34200.00000 0 -11343318.531 -11422224.864 19815974.651 10 0 59388 35100.00000 0 -11895858.110 -13683518.796 17970472.292 10 0 59388 36000.00000 0 -12547232.643 -15659063.311 15776756.876 10 0 59388 36900.00000 0 -13247346.826 -17309211.686 13277219.109 10 0 59388 37800.00000 0 -13940913.223 -18606119.293 10520202.865 10 0 59388 38700.00000 0 -14569902.424 -19534694.393 7559082.509 10 0 59388 39600.00000 0 -15076128.027 -20093028.386 4451239.688 10 0 59388 40500.00000 0 -15403857.839 -20292287.137 1256958.367 10 0 59388 41400.00000 0 -15502340.966 -20156067.268 -1961741.122 10 0 59388 42300.00000 0 -15328143.384 -19719243.808 -5142306.507 10 0 59388 43200.00000 0 -14847192.034 -19026357.145 -8222872.914 10 0 59388 44100.00000 0 -14036439.339 -18129606.928 -11143472.883 10 0 59388 45000.00000 0 -12885075.791 -17086537.431 -13847212.578 10 0 59388 45900.00000 0 -11395237.154 -15957512.340 -16281390.350 10 0 59388 46800.00000 0 -9582174.168 -14803086.054 -18398534.828 10 0 59388 47700.00000 0 -7473875.473 -13681383.256 -20157341.196 10 0 59388 48600.00000 0 -5110157.712 -12645598.192 -21523486.573 10 0 59388 49500.00000 0 -2541259.408 -11741720.090 -22470307.828 10 0 59388 50400.00000 0 174003.533 -11006581.488 -22979328.048 10 0 59388 51300.00000 0 2970444.281 -10466312.370 -23040621.019 10 0 59388 52200.00000 0 5778981.708 -10135265.658 -22653006.414 10 0 59388 53100.00000 0 8529283.791 -10015459.438 -21824071.837 10 0 59388 54000.00000 0 11152467.434 -10096559.118 -20570021.362 10 0 59388 54900.00000 0 13583741.998 -10356399.726 -18915353.744 10 0 59388 55800.00000 0 15764886.077 -10762025.411 -16892376.908 10 0 59388 56700.00000 0 17646454.330 -11271201.171 -14540568.697 10 0 59388 57600.00000 0 19189622.651 -11834331.724 -11905796.868 10 0 59388 58500.00000 0 20367595.278 -12396705.108 -9039414.387 10 0 59388 59400.00000 0 21166516.183 -12900964.897 -5997248.454 10 0 59388 60300.00000 0 21585848.199 -13289705.333 -2838503.857 10 0 59388 61200.00000 0 21638205.819 -13508078.663 375396.973 10 0 59388 62100.00000 0 21348650.836 -13506303.800 3582013.800 10 0 59388 63000.00000 0 20753482.575 -13241969.868 6719104.327 10 0 59388 63900.00000 0 19898575.559 -12682037.332 9725831.621 10 0 59388 64800.00000 0 18837336.270 -11804452.450 12543939.747 10 0 59388 65700.00000 0 17628366.124 -10599307.395 15118875.051 10 0 59388 66600.00000 0 16332929.644 -9069497.674 17400831.900 10 0 59388 67500.00000 0 15012334.247 -7230849.544 19345703.706 10 0 59388 68400.00000 0 13725331.128 -5111712.144 20915922.104 10 0 59388 69300.00000 0 12525645.273 -2752031.167 22081169.448 10 0 59388 70200.00000 0 11459736.720 -201942.049 22818952.389 10 0 59388 71100.00000 0 10564885.214 2480059.940 23115026.809 10 0 59388 72000.00000 0 9867676.925 5229298.060 22963666.967 10 0 59388 72900.00000 0 9382955.102 7977352.371 22367774.384 10 0 59388 73800.00000 0 9113277.577 10654658.832 21338824.605 10 0 59388 74700.00000 0 9048903.253 13193163.458 19896652.587 10 0 59388 75600.00000 0 9168308.044 15528923.437 18069080.142 10 0 59388 76500.00000 0 9439209.043 17604548.976 15891391.463 10 0 59388 77400.00000 0 9820054.680 19371385.615 13405665.498 10 0 59388 78300.00000 0 10261919.240 20791347.063 10659976.519 10 0 59388 79200.00000 0 10710723.032 21838322.491 7707476.814 10 0 59388 80100.00000 0 11109685.528 22499099.326 4605377.970 10 0 59388 81000.00000 0 11401908.560 22773762.440 1413849.446 10 0 59388 81900.00000 0 11532980.537 22675552.257 -1805144.906 10 0 59388 82800.00000 0 11453491.223 22230186.830 -4989049.934 10 0 59388 83700.00000 0 11121349.733 21474675.595 -8075938.356 10 0 59388 84600.00000 0 10503806.232 20455674.061 -11005721.815 10 0 59388 85500.00000 0 9579089.965 19227448.345 -13721329.317 10 0 59389 0.00000 0 8337592.290 17849535.285 -16169829.144 10 0 59389 900.00000 0 6782541.944 16384196.992 -18303471.583 10 0 59389 1800.00000 0 4930143.240 14893777.403 -20080630.436 10 0 59389 2700.00000 0 2809166.982 13438073.560 -21466624.863 10 0 59389 3600.00000 0 460011.678 12071832.149 -22434404.284 10 0 59389 4500.00000 0 -2066728.380 10842478.230 -22965082.464 10 0 59389 5400.00000 0 -4712128.650 9788171.914 -23048310.097 10 0 59389 6300.00000 0 -7411156.277 8936275.171 -22682478.353 10 0 59389 7200.00000 0 -10095155.759 8302293.279 -21874749.360 10 0 59389 8100.00000 0 -12694494.562 7889335.088 -20640913.165 10 0 59389 9000.00000 0 -15141258.143 7688114.080 -19005074.110 10 0 59389 9900.00000 0 -17371881.571 7677489.129 -16999173.138 10 0 59389 10800.00000 0 -19329607.816 7825520.835 -14662355.770 10 0 59389 11700.00000 0 -20966670.112 8090997.302 -12040198.674 10 0 59389 12600.00000 0 -22246107.441 8425363.348 -9183810.647 10 0 59389 13500.00000 0 -23143138.006 8774969.964 -6148826.366 10 0 59389 14400.00000 0 -23646034.262 9083547.429 -2994313.405 10 0 59389 15300.00000 0 -23756464.307 9294796.158 218385.207 10 0 59389 16200.00000 0 -23489287.114 9354984.700 3426849.504 10 0 59389 17100.00000 0 -22871812.112 9215444.292 6568798.172 10 0 59389 18000.00000 0 -21942556.145 8834854.254 9583297.024 10 0 59389 18900.00000 0 -20749551.771 8181221.675 12411936.780 10 0 59389 19800.00000 0 -19348279.325 7233472.108 14999957.549 10 0 59389 20700.00000 0 -17799310.487 5982584.684 17297298.742 10 0 59389 21600.00000 0 -16165762.523 4432224.235 19259555.131 10 0 59389 22500.00000 0 -14510669.608 2598844.078 20848821.817 10 0 59389 23400.00000 0 -12894380.497 511255.089 22034413.174 10 0 59389 24300.00000 0 -11372090.097 -1790321.455 22793443.408 10 0 59389 25200.00000 0 -9991606.495 -4255678.728 23111258.873 10 0 59389 26100.00000 0 -8791445.000 -6826468.918 22981714.896 10 0 59389 27000.00000 0 -7799327.121 -9438392.548 22407292.515 10 0 59389 27900.00000 0 -7031145.678 -12023643.686 21399053.122 10 0 59389 28800.00000 0 -6490438.259 -14513511.514 19976431.648 10 0 59389 29700.00000 0 -6168390.371 -16841032.339 18166871.598 10 0 59389 30600.00000 0 -6044368.018 -18943583.701 16005307.800 10 0 59389 31500.00000 0 -6086957.664 -20765314.067 13533505.557 10 0 59389 32400.00000 0 -6255470.508 -22259307.987 10799267.361 10 0 59389 33300.00000 0 -6501848.595 -23389396.838 7855521.001 10 0 59389 34200.00000 0 -6772893.244 -24131539.405 4759305.411 10 0 59389 35100.00000 0 -7012722.398 -24474714.029 1570672.807 10 0 59389 36000.00000 0 -7165353.331 -24421284.046 -1648472.270 10 0 59389 36900.00000 0 -7177301.344 -23986820.085 -4835574.679 10 0 59389 37800.00000 0 -7000083.806 -23199385.602 -7928647.665 10 0 59389 38700.00000 0 -6592522.336 -22098314.702 -10867484.915 10 0 59389 39600.00000 0 -5922744.081 -20732532.916 -13594841.187 10 0 59389 40500.00000 0 -4969795.441 -19158491.205 -16057557.572 10 0 59389 41400.00000 0 -3724797.796 -17437800.027 -18207608.449 10 0 59389 42300.00000 0 -2191594.253 -15634663.272 -20003048.590 10 0 59389 43200.00000 0 -386857.887 -13813220.481 -21408841.118 10 0 59389 44100.00000 0 1660345.048 -12034909.662 -22397549.393 10 0 59389 45000.00000 0 3909520.205 -10355962.211 -22949878.735 10 0 59389 45900.00000 0 6310199.379 -8825135.647 -23055057.056 10 0 59389 46800.00000 0 8803823.817 -7481779.685 -22711046.778 10 0 59389 47700.00000 0 11325978.267 -6354316.884 -21924583.813 10 0 59389 48600.00000 0 13808882.457 -5459201.298 -20711042.959 10 0 59389 49500.00000 0 16184035.834 -4800398.093 -19094132.500 10 0 59389 50400.00000 0 18384904.659 -4369404.946 -17105424.326 10 0 59389 51300.00000 0 20349538.923 -4145812.788 -14783729.187 10 0 59389 52200.00000 0 22023009.477 -4098380.546 -12174329.808 10 0 59389 53100.00000 0 23359563.371 -4186576.712 -9328087.613 10 0 59389 54000.00000 0 24324407.547 -4362520.674 -6300441.254 10 0 59389 54900.00000 0 24895046.820 -4573239.972 -3150317.374 10 0 59389 55800.00000 0 25062121.093 -4763146.360 61024.209 10 0 59389 56700.00000 0 24829708.080 -4876624.588 3271187.555 10 0 59389 57600.00000 0 24215080.444 -4860623.392 6417855.904 10 0 59389 58500.00000 0 23247929.246 -4667138.509 9440001.068 10 0 59389 59400.00000 0 21969087.968 -4255482.587 12279063.243 10 0 59389 60300.00000 0 20428812.016 -3594246.197 14880078.640 10 0 59389 61200.00000 0 18684686.925 -2662867.645 17192733.533 10 0 59389 62100.00000 0 16799253.366 -1452745.866 19172325.347 10 0 59389 63000.00000 0 14837448.304 32150.072 20780613.454 10 0 59389 63900.00000 0 12863968.681 1775200.240 21986544.584 10 0 59389 64800.00000 0 10940666.537 3747585.601 22766840.387 10 0 59389 65700.00000 0 9124082.702 5909254.032 23106437.165 10 0 59389 66600.00000 0 7463220.133 8210361.417 22998770.396 10 0 59389 67500.00000 0 5997647.827 10593129.389 22445899.331 10 0 59389 68400.00000 0 4756012.561 12994044.296 21458469.545 10 0 59389 69300.00000 0 3755019.120 15346307.959 20055513.960 10 0 59389 70200.00000 0 2998920.451 17582440.425 18264095.488 10 0 59389 71100.00000 0 2479538.402 19636928.393 16118797.096 10 0 59389 72000.00000 0 2176814.055 21448810.560 13661067.735 10 0 59389 72900.00000 0 2059864.758 22964093.343 10938435.289 10 0 59389 73800.00000 0 2088503.921 24137896.728 8003600.121 10 0 59389 74700.00000 0 2215160.299 24936240.551 4913425.529 10 0 59389 75600.00000 0 2387116.332 25337395.959 1727843.521 10 0 59389 76500.00000 0 2548971.413 25332744.471 -1491303.590 10 0 59389 77400.00000 0 2645225.966 24927107.332 -4681463.457 10 0 59389 78300.00000 0 2622876.527 24138529.985 -7780592.433 10 0 59389 79200.00000 0 2433911.073 22997529.393 -10728368.565 10 0 59389 80100.00000 0 2037597.591 21545834.739 -13467374.349 10 0 59389 81000.00000 0 1402467.286 19834673.616 -15944225.293 10 0 59389 81900.00000 0 507906.509 17922675.264 -18110621.249 10 0 59389 82800.00000 0 -654711.994 15873478.882 -19924298.905 10 0 59389 83700.00000 0 -2081408.405 13753147.641 -21349866.001 10 0 59389 84600.00000 0 -3755513.933 11627497.327 -22359500.222 10 0 59389 85500.00000 0 -5648132.858 9559452.255 -22933498.522 10 0 59390 0.00000 0 -7719130.490 7606539.750 -23060665.823 10 0 59390 900.00000 0 -9918606.975 5818628.653 -22738535.213 10 0 59390 1800.00000 0 -12188794.959 4236006.183 -21973415.460 10 0 59390 2700.00000 0 -14466302.974 2887874.681 -20780264.751 10 0 59390 3600.00000 0 -16684609.805 1791328.957 -19182393.559 10 0 59390 4500.00000 0 -18776705.451 950857.394 -17211002.608 10 0 59390 5400.00000 0 -20677767.708 358385.602 -14904565.461 10 0 59390 6300.00000 0 -22327761.964 -6140.841 -12308068.288 10 0 59390 7200.00000 0 -23673854.972 -173661.125 -9472122.410 10 0 59390 8100.00000 0 -24672541.440 -184439.771 -6451967.702 10 0 59390 9000.00000 0 -25291394.535 -86110.991 -3306387.151 10 0 59390 9900.00000 0 -25510367.440 68588.616 -96554.714 10 0 59390 10800.00000 0 -25322592.299 224301.409 3115160.244 10 0 59390 11700.00000 0 -24734644.257 325637.838 6266407.982 10 0 59390 12600.00000 0 -23766260.904 319762.961 9296068.639 10 0 59390 13500.00000 0 -22449530.373 158870.493 12145434.104 10 0 59390 14400.00000 0 -20827583.437 -197560.161 14759338.723 10 0 59390 15300.00000 0 -18952845.480 -780818.881 17087217.448 10 0 59390 16200.00000 0 -16884922.126 -1611413.354 19084071.909 10 0 59390 17100.00000 0 -14688206.985 -2697975.912 20711326.965 10 0 59390 18000.00000 0 -12429310.990 -4036674.274 21937562.566 10 0 59390 18900.00000 0 -10174419.528 -5611150.796 22739108.292 10 0 59390 19800.00000 0 -7986685.950 -7392993.164 23100490.506 10 0 59390 20700.00000 0 -5923768.292 -9342717.585 23014724.595 10 0 59390 21600.00000 0 -4035609.664 -11411224.738 22483447.460 10 0 59390 22500.00000 0 -2362552.756 -13541669.458 21516888.005 10 0 59390 23400.00000 0 -933865.231 -15671668.126 20133676.021 10 0 59390 24300.00000 0 233264.020 -17735753.877 18360492.468 10 0 59390 25200.00000 0 1134216.917 -19667979.313 16231566.830 10 0 59390 26100.00000 0 1776906.466 -21404559.876 13788029.877 10 0 59390 27000.00000 0 2181207.137 -22886448.881 11077132.815 10 0 59390 27900.00000 0 2377879.008 -24061737.442 8151346.331 10 0 59390 28800.00000 0 2407030.457 -24887778.986 5067355.669 10 0 59390 29700.00000 0 2316183.670 -25332949.029 1884970.080 10 0 59390 30600.00000 0 2158024.207 -25377965.467 -1334032.981 10 0 59390 31500.00000 0 1987929.524 -25016712.605 -4527106.658 10 0 59390 32400.00000 0 1861381.241 -24256532.799 -7632153.138 10 0 59390 33300.00000 0 1831371.303 -23117971.796 -10588737.556 10 0 59390 34200.00000 0 1945912.930 -21633986.992 -13339272.851 10 0 59390 35100.00000 0 2245763.191 -19848650.646 -15830151.556 10 0 59390 36000.00000 0 2762455.342 -17815401.588 -18012801.437 10 0 59390 36900.00000 0 3516726.069 -15594918.356 -19844643.273 10 0 59390 37800.00000 0 4517406.056 -13252702.818 -21289931.244 10 0 59390 38700.00000 0 5760822.663 -10856475.671 -22320458.757 10 0 59390 39600.00000 0 7230741.578 -8473493.347 -22916115.308 10 0 59390 40500.00000 0 8898851.360 -6167898.980 -23065283.203 10 0 59390 41400.00000 0 10725771.658 -3998218.592 -22765066.127 10 0 59390 42300.00000 0 12662543.441 -2015107.462 -22021345.067 10 0 59390 43200.00000 0 14652539.073 -259440.739 -20848660.574 10 0 59390 44100.00000 0 16633712.184 1239172.311 -19269923.836 10 0 59390 45000.00000 0 18541092.641 2463389.105 -17315962.533 10 0 59390 45900.00000 0 20309421.630 3408609.022 -15024910.763 10 0 59390 46800.00000 0 21875815.794 4082904.984 -12441455.480 10 0 59390 47700.00000 0 23182348.135 4506416.210 -9615954.884 10 0 59390 48600.00000 0 24178437.078 4710229.992 -6603446.743 10 0 59390 49500.00000 0 24822943.262 4734801.939 -3462566.836 10 0 59390 50400.00000 0 25085886.224 4627983.564 -254399.593 10 0 59390 51300.00000 0 24949709.391 4442742.547 2958715.857 10 0 59390 52200.00000 0 24410041.110 4234673.702 6114400.288 10 0 59390 53100.00000 0 23475920.807 4059407.088 9151445.405 10 0 59390 54000.00000 0 22169481.985 3970023.589 12010997.643 10 0 59390 54900.00000 0 20525106.489 4014587.420 14637691.912 10 0 59390 55800.00000 0 18588086.451 4233899.587 16980713.810 10 0 59390 56700.00000 0 16412850.527 4659566.554 18994770.665 10 0 59390 57600.00000 0 14060828.702 5312464.859 20640953.880 10 0 59390 58500.00000 0 11598044.441 6201665.613 21887477.238 10 0 59390 59400.00000 0 9092533.663 7323863.614 22710278.463 10 0 59390 60300.00000 0 6611696.520 8663334.938 23093473.792 10 0 59390 61200.00000 0 4219690.489 10192425.103 23029657.938 10 0 59390 62100.00000 0 1974971.045 11872548.240 22520044.471 10 0 59390 63000.00000 0 -71919.922 13655656.854 21574444.261 10 0 59390 63900.00000 0 -1880227.916 15486122.433 20211082.219 10 0 59390 64800.00000 0 -3420445.647 17302950.334 18456255.262 10 0 59390 65700.00000 0 -4675299.377 19042238.434 16343837.013 10 0 59390 66600.00000 0 -5640221.469 20639778.621 13914637.438 10 0 59390 67500.00000 0 -6323289.866 22033693.846 11215628.274 10 0 59390 68400.00000 0 -6744637.069 23167001.397 8299047.618 10 0 59390 69300.00000 0 -6935353.132 23989995.365 5221399.684 10 0 59390 70200.00000 0 -6935928.448 24462348.196 2042367.968 10 0 59390 71100.00000 0 -6794301.509 24554842.274 -1176337.905 10 0 59390 72000.00000 0 -6563593.812 24250657.489 -4372179.464 10 0 59390 72900.00000 0 -6299627.647 23546158.987 -7483007.489 10 0 59390 73800.00000 0 -6058332.183 22451150.181 -10448276.761 10 0 59390 74700.00000 0 -5893148.400 20988578.540 -13210232.948 10 0 59390 75600.00000 0 -5852543.886 19193704.914 -15715047.595 10 0 59390 76500.00000 0 -5977744.155 17112769.879 -17913878.025 10 0 59390 77400.00000 0 -6300778.107 14801212.173 -19763830.420 10 0 59390 78300.00000 0 -6842922.050 12321513.320 -21228806.373 10 0 59390 79200.00000 0 -7613609.728 9740758.498 -22280215.642 10 0 59390 80100.00000 0 -8609855.944 7128015.855 -22897540.574 10 0 59390 81000.00000 0 -9816219.441 4551644.086 -23068740.817 10 0 59390 81900.00000 0 -11205307.691 2076641.040 -22790490.204 10 0 59390 82800.00000 0 -12738803.043 -237855.617 -22068241.126 10 0 59390 83700.00000 0 -14368967.469 -2340811.325 -20916115.220 10 0 59390 84600.00000 0 -16040562.707 -4191187.801 -19356622.693 10 0 59390 85500.00000 0 -17693104.825 -5759407.920 -17420216.085 10 0 59391 0.00000 0 -19263358.034 -7028332.242 -15144687.652 10 0 59391 900.00000 0 -20687962.250 -7993707.678 -12574422.335 10 0 59391 1800.00000 0 -21906083.674 -8664071.819 -9759522.405 10 0 59391 2700.00000 0 -22861975.567 -9060118.252 -6754820.573 10 0 59391 3600.00000 0 -23507342.273 -9213553.087 -3618802.454 10 0 59391 4500.00000 0 -23803405.984 -9165492.316 -412460.025 10 0 59391 5400.00000 0 -23722589.978 -8964470.336 2801900.669 10 0 59391 6300.00000 0 -23249747.848 -8664145.505 5961873.668 10 0 59391 7200.00000 0 -22382887.847 -8320801.234 9006164.870 10 0 59391 8100.00000 0 -21133362.787 -7990749.234 11875777.715 10 0 59391 9000.00000 0 -19525518.472 -7727745.124 14515149.923 10 0 59391 9900.00000 0 -17595816.246 -7580525.503 16873219.703 10 0 59391 10800.00000 0 -15391466.954 -7590569.965 18904401.722 10 0 59391 11700.00000 0 -12968633.564 -7790181.620 20569455.173 10 0 59391 12600.00000 0 -10390277.213 -8200966.081 21836228.522 10 0 59391 13500.00000 0 -7723735.595 -8832772.019 22680268.058 10 0 59391 14400.00000 0 -5038133.133 -9683137.260 23085279.913 10 0 59391 15300.00000 0 -2401728.916 -10737263.436 23043437.780 10 0 59391 16200.00000 0 120689.442 -11968520.575 22555531.245 10 0 59391 17100.00000 0 2470260.015 -13339461.380 21630952.213 10 0 59391 18000.00000 0 4596248.896 -14803303.962 20287519.561 10 0 59391 18900.00000 0 6457911.069 -16305822.676 18551144.804 10 0 59391 19800.00000 0 8025933.978 -17787569.796 16455344.126 10 0 59391 20700.00000 0 9283404.668 -19186336.753 14040604.897 10 0 59391 21600.00000 0 10226260.877 -20439753.497 11353617.361 10 0 59391 22500.00000 0 10863207.412 -21487918.176 8446384.764 10 0 59391 23400.00000 0 11215101.183 -22275947.413 5375227.812 10 0 59391 24300.00000 0 11313830.388 -22756340.118 2199701.575 10 0 59391 25200.00000 0 11200734.613 -22891054.847 -1018554.954 10 0 59391 26100.00000 0 10924632.050 -22653212.151 -4217014.564 10 0 59391 27000.00000 0 10539537.014 -22028348.644 -7333479.512 10 0 59391 27900.00000 0 10102164.344 -21015168.073 -10307297.071 10 0 59391 28800.00000 0 9669326.761 -19625755.738 -13080548.400 10 0 59391 29700.00000 0 9295336.151 -17885245.296 -15599186.655 10 0 59391 30600.00000 0 9029519.906 -15830950.140 -17814101.127 10 0 59391 31500.00000 0 8913958.764 -13510994.461 -19682085.518 10 0 59391 32400.00000 0 8981543.300 -10982500.353 -21166690.600 10 0 59391 33300.00000 0 9254432.694 -8309406.238 -22238943.840 10 0 59391 34200.00000 0 9742982.248 -5560007.682 -22877921.314 10 0 59391 35100.00000 0 10445186.088 -2804323.336 -23071160.409 10 0 59391 36000.00000 0 11346659.486 -111396.168 -22814905.009 10 0 59391 36900.00000 0 12421162.148 2453357.159 -22114178.344 10 0 59391 37800.00000 0 13631640.720 4830638.078 -20982682.134 10 0 59391 38700.00000 0 14931746.581 6969495.272 -19442524.196 10 0 59391 39600.00000 0 16267764.693 8829198.461 -17523780.139 10 0 59391 40500.00000 0 17580871.751 10380679.432 -15263898.109 10 0 59391 41400.00000 0 18809627.850 11607481.280 -12706958.733 10 0 59391 42300.00000 0 19892595.934 12506177.697 -9902805.408 10 0 59391 43200.00000 0 20770977.958 13086246.782 -6906062.670 10 0 59391 44100.00000 0 21391156.083 13369406.925 -3775062.618 10 0 59391 45000.00000 0 21707031.430 13388445.082 -570701.303 10 0 59391 45900.00000 0 21682061.736 13185589.151 2644751.802 10 0 59391 46800.00000 0 21290912.255 12810495.252 5808867.391 10 0 59391 47700.00000 0 20520650.834 12317936.623 8860268.718 10 0 59391 48600.00000 0 19371437.561 11765293.026 11739819.091 10 0 59391 49500.00000 0 17856680.672 11209947.434 14391761.531 10 0 59391 50400.00000 0 16002652.905 10706700.055 16764788.958 10 0 59391 51300.00000 0 13847584.849 10305308.439 18813025.063 10 0 59391 52200.00000 0 11440273.331 10048256.602 20496898.131 10 0 59391 53100.00000 0 8838262.747 9968846.042 21783892.207 10 0 59391 54000.00000 0 6105674.365 10089687.846 22649162.663 10 0 59391 54900.00000 0 3310772.686 10421658.230 23076005.658 10 0 59391 55800.00000 0 523368.419 10963360.647 23056173.607 10 0 59391 56700.00000 0 -2187836.099 11701116.737 22590031.442 10 0 59391 57600.00000 0 -4757851.038 12609486.728 21686551.014 10 0 59391 58500.00000 0 -7127846.789 13652298.252 20363143.669 10 0 59391 59400.00000 0 -9247345.659 14784141.613 18645333.614 10 0 59391 60300.00000 0 -11076068.192 15952270.441 16566277.354 10 0 59391 61200.00000 0 -12585358.506 17098829.605 14166137.136 10 0 59391 62100.00000 0 -13759130.092 18163318.556 11491318.973 10 0 59391 63000.00000 0 -14594292.966 19085187.943 8593588.391 10 0 59391 63900.00000 0 -15100644.194 19806461.219 5529079.655 10 0 59391 64800.00000 0 -15300226.133 20274271.274 2357216.465 10 0 59391 65700.00000 0 -15226178.847 20443204.924 -860435.733 10 0 59391 66600.00000 0 -14921134.535 20277355.572 -4061363.847 10 0 59391 67500.00000 0 -14435221.360 19751996.037 -7183324.374 10 0 59391 68400.00000 0 -13823760.852 18854799.146 -10165559.704 10 0 59391 69300.00000 0 -13144756.410 17586552.553 -12949988.910 10 0 59391 70200.00000 0 -12456279.663 15961335.510 -15482348.942 10 0 59391 71100.00000 0 -11813866.057 14006148.033 -17713262.931 10 0 59391 72000.00000 0 -11268030.895 11760006.285 -19599213.649 10 0 59391 72900.00000 0 -10862012.051 9272540.652 -21103402.248 10 0 59391 73800.00000 0 -10629835.972 6602154.155 -22196474.745 10 0 59391 74700.00000 0 -10594789.817 3813817.687 -22857101.435 10 0 59391 75600.00000 0 -10768365.173 976593.878 -23072397.561 10 0 59391 76500.00000 0 -11149718.671 -1839007.102 -22838176.805 10 0 59391 77400.00000 0 -11725672.645 -4563729.269 -22159032.588 10 0 59391 78300.00000 0 -12471255.947 -7132217.349 -21048245.665 10 0 59391 79200.00000 0 -13350761.922 -9485497.699 -19527520.019 10 0 59391 80100.00000 0 -14319278.476 -11573190.256 -17626552.502 10 0 59391 81000.00000 0 -15324625.011 -13355359.743 -15382445.059 10 0 59391 81900.00000 0 -16309613.715 -14803929.676 -12838971.487 10 0 59391 82800.00000 0 -17214538.836 -15903601.260 -10045713.763 10 0 59391 83700.00000 0 -17979788.012 -16652240.406 -7057085.528 10 0 59391 84600.00000 0 -18548464.589 -17060718.670 -3931262.592 10 0 59391 85500.00000 0 -18868909.630 -17152216.985 -729042.299 99